TimePST,TemperatureF,Dew PointF,Humidity,Sea Level PressureIn,VisibilityMPH,Wind Direction,Wind SpeedMPH,Gust SpeedMPH,PrecipitationIn,Events,Conditions,WindDirDegrees,DateUTC
12:53 AM,53.1,24.1,32,29.91,10.0,West,3.5,-,N/A,,Clear,280,2013-02-18 08:53:00
1:53 AM,48.9,27.0,43,29.92,10.0,SW,3.5,-,N/A,,Clear,230,2013-02-18 09:53:00
2:53 AM,48.9,32.0,52,29.91,10.0,SSW,5.8,-,N/A,,Clear,210,2013-02-18 10:53:00
3:53 AM,50.0,37.4,62,29.91,10.0,Calm,Calm,-,N/A,,Clear,0,2013-02-18 11:53:00
4:53 AM,46.9,33.1,59,29.94,10.0,SE,3.5,-,N/A,,Clear,130,2013-02-18 12:53:00
5:53 AM,46.4,35.6,66,29.96,10.0,SSE,3.5,-,N/A,,Clear,160,2013-02-18 13:53:00
6:53 AM,44.1,34.0,68,29.97,9.0,Calm,Calm,-,N/A,,Clear,0,2013-02-18 14:53:00
7:53 AM,52.0,39.0,61,30.00,10.0,SSE,3.5,-,N/A,,Clear,160,2013-02-18 15:53:00
8:53 AM,59.0,35.1,41,29.99,10.0,Calm,Calm,-,N/A,,Clear,0,2013-02-18 16:53:00
9:53 AM,64.0,37.0,37,29.99,10.0,Calm,Calm,-,N/A,,Clear,0,2013-02-18 17:53:00
10:53 AM,66.9,37.0,33,29.99,10.0,Calm,Calm,-,N/A,,Clear,0,2013-02-18 18:53:00
11:53 AM,72.0,28.9,20,29.96,10.0,Calm,Calm,-,N/A,,Clear,0,2013-02-18 19:53:00
12:53 PM,73.0,24.1,16,29.92,10.0,Calm,Calm,-,N/A,,Clear,0,2013-02-18 20:53:00
1:53 PM,75.0,25.0,16,29.90,10.0,East,6.9,-,N/A,,Clear,80,2013-02-18 21:53:00
2:53 PM,75.9,25.0,15,29.88,10.0,Variable,3.5,-,N/A,,Clear,0,2013-02-18 22:53:00
3:53 PM,75.0,26.1,16,29.87,10.0,SE,5.8,-,N/A,,Clear,140,2013-02-18 23:53:00
4:53 PM,73.4,28.4,19,29.85,10.0,East,4.6,-,N/A,,Clear,100,2013-02-19 00:53:00
5:53 PM,71.1,26.1,19,29.84,10.0,SE,4.6,-,N/A,,Clear,140,2013-02-19 01:53:00
6:53 PM,66.0,30.0,26,29.85,10.0,South,5.8,-,N/A,,Clear,170,2013-02-19 02:53:00
7:53 PM,61.0,36.0,39,29.86,10.0,SW,8.1,-,N/A,,Clear,230,2013-02-19 03:53:00
8:53 PM,59.0,39.9,49,29.87,10.0,West,9.2,-,N/A,,Clear,260,2013-02-19 04:53:00
9:53 PM,59.0,41.0,51,29.87,10.0,WSW,9.2,-,N/A,,Clear,250,2013-02-19 05:53:00
10:53 PM,59.0,39.9,49,29.86,10.0,West,10.4,-,N/A,,Clear,270,2013-02-19 06:53:00
11:53 PM,57.9,37.0,46,29.86,10.0,West,10.4,-,N/A,,Clear,280,2013-02-19 07:53:00